Sidney-Richland, MT

5:27 PM MDT on September 22, 2019 (GMT -0600)
Sidney-Richland Municipal

Weather History for KSDY - August, 2019

Change the Weather History Date:

Saturday, August 24, 2019

  Actual Average Record
Temperature  
Mean Temperature 73 °F 69 °F  
Max Temperature 84 °F 85 °F 99 °F (1952)
Min Temperature 62 °F 54 °F 36 °F (1960)
Degree Days  
Heating Degree Days 0 0  
Month to date heating degree days 26 0  
Cooling Degree Days 8 4  
Month to date cooling degree days 121 78  
Growing Degree Days 23 (Base 50)    
Moisture  
Dew Point 65 °F    
Average Humidity 80    
Maximum Humidity 100    
Minimum Humidity 54    
Precipitation  
Precipitation 0.04 in 0.03 in 2.94 in (1914)
Month to date precipitation 1.66 0.91  
Sea Level Pressure  
Sea Level Pressure 30.72 in    
Wind  
Wind Speed 6 mph ()    
Max Wind Speed 17 mph    
Max Gust Speed -    
Visibility 9.9 miles    
Events Rain , Thunderstorm    
T = Trace of Precipitation, MM = Missing Value Source: Averaged Metar Reports

Daily Weather History Graph

Daily Weather History Graph

Search for Another Location

Airport or City:

Astronomy

Aug. 24, 2019 Rise Set
Actual Time 6:04 AM MDT 7:53 PM MDT
Civil Twilight 5:31 AM MDT 8:25 PM MDT
Nautical Twilight 4:50 AM MDT 9:05 PM MDT
Astronomical Twilight 4:06 AM MDT 9:50 PM MDT
Moon No Moon Rise 3:23 PM MDT (8/24)
Length of Visible Light 14h 54m
Length of Day
13h 48m
Last Quarter, 38% of the Moon is Illuminated
Aug 24
Last Quarter
Aug 30
New
Sep 5
First Quarter
Sep 13
Full
Sep 21
Last Quarter

Hourly Weather History & Observations

Time (MDT) Temp. Heat Index Dew Point Humidity Pressure Visibility Wind Dir Wind Speed Gust Speed Precip Events Conditions
12:56 AM 69.1 °F - 66.0 °F 90% 31.02 in 10.0 mi Calm Calm - N/A   Clear
1:56 AM 70.0 °F - 66.9 °F 90% 31.00 in 10.0 mi WSW 5.8 mph - N/A   Mostly Cloudy
2:56 AM 68.0 °F - 66.9 °F 96% 30.98 in 10.0 mi North 5.8 mph - 0.01 in Rain Light Rain
3:51 AM 68.0 °F - 66.2 °F 94% 29.84 in 10.0 mi East 3.5 mph - 0.02 in Rain Light Rain
3:56 AM 68.0 °F - 66.9 °F 96% 30.99 in 10.0 mi NNW 4.6 mph - 0.02 in Rain Light Rain
4:56 AM 68.0 °F - 66.9 °F 96% 31.00 in 10.0 mi WSW 4.6 mph - 0.01 in Thunderstorm Overcast
5:37 AM 68.0 °F - 66.2 °F 94% 29.81 in 10.0 mi NW 3.5 mph - N/A   Overcast
5:56 AM 68.0 °F - 66.0 °F 93% 30.98 in 10.0 mi West 4.6 mph - N/A   Scattered Clouds
6:30 AM 66.2 °F - 66.2 °F 100% 29.83 in 10.0 mi South 5.8 mph - N/A   Overcast
6:43 AM 66.2 °F - 66.2 °F 100% 29.83 in 9.0 mi South 5.8 mph - N/A   Overcast
6:56 AM 66.9 °F - 66.0 °F 97% 30.99 in 9.0 mi South 9.2 mph - N/A   Overcast
7:12 AM 66.2 °F - 64.4 °F 94% 29.83 in 10.0 mi SSW 9.2 mph - N/A   Overcast
7:26 AM 66.2 °F - 64.4 °F 94% 29.83 in 10.0 mi South 10.4 mph - N/A   Scattered Clouds
7:56 AM 66.9 °F - 64.0 °F 90% 30.98 in 10.0 mi South 10.4 mph - N/A   Clear
8:56 AM 68.0 °F - 64.0 °F 87% 30.97 in 10.0 mi SSW 9.2 mph - N/A   Clear
9:56 AM 72.0 °F - 64.9 °F 78% 30.96 in 10.0 mi SSW 17.3 mph - N/A   Clear
10:56 AM 75.9 °F - 66.0 °F 71% 30.95 in 10.0 mi South 11.5 mph - N/A   Clear
11:56 AM 77.0 °F - 66.0 °F 69% 30.95 in 10.0 mi South 11.5 mph - N/A   Clear
12:56 PM 81.0 °F 83.8 °F 68.0 °F 65% 30.94 in 10.0 mi South 12.7 mph - N/A   Partly Cloudy
1:56 PM 82.0 °F 84.5 °F 66.9 °F 60% 30.93 in 10.0 mi South 11.5 mph - N/A   Clear
2:56 PM 82.0 °F 83.8 °F 64.9 °F 56% 30.91 in 10.0 mi South 13.8 mph - N/A   Mostly Cloudy
3:56 PM 82.9 °F 84.6 °F 64.9 °F 54% 30.90 in 10.0 mi South 11.5 mph - N/A   Clear
4:56 PM 80.1 °F 82.1 °F 66.0 °F 62% 30.90 in 10.0 mi South 8.1 mph - N/A   Clear
5:56 PM 78.1 °F - 66.0 °F 66% 30.89 in 10.0 mi South 5.8 mph - N/A   Clear
6:56 PM 78.1 °F - 64.9 °F 64% 30.88 in 10.0 mi SSW 5.8 mph - N/A   Clear
7:56 PM 77.0 °F - 64.0 °F 64% 30.88 in 10.0 mi SW 4.6 mph - N/A   Clear
8:56 PM 77.0 °F - 61.0 °F 58% 30.89 in 10.0 mi West 5.8 mph - N/A   Clear
9:56 PM 73.0 °F - 62.1 °F 68% 30.89 in 10.0 mi NW 5.8 mph - N/A   Mostly Cloudy
10:56 PM 69.1 °F - 62.1 °F 78% 30.88 in 10.0 mi Calm Calm - N/A   Clear
11:56 PM 64.9 °F - 59.0 °F 81% 30.88 in 10.0 mi Calm Calm - N/A   Clear